| time (UTC) | temp F | wind direction | speed knots | gust knots | rain 1hr in | rain 24hr in | rain mn in | humidity % | barometer mb |
| 20260510120535 | 55 | 0.0 | 0.0 | 0.00 | 0.00 | 0.00 | 88 | 1032.2 | |
| 20260510115533 | 56 | 0.0 | 0.9 | 0.00 | 0.00 | 0.00 | 87 | 1032.4 | |
| 20260510114530 | 56 | 115 | 0.0 | 1.7 | 0.00 | 0.00 | 0.00 | 86 | 1032.3 |
| 20260510113043 | 57 | 0.0 | 0.9 | 0.00 | 0.00 | 0.00 | 85 | 1032.0 | |
| 20260510112035 | 57 | 65 | 1.7 | 2.6 | 0.00 | 0.00 | 0.00 | 85 | 1032.1 |
| 20260510110530 | 56 | 110 | 1.7 | 4.3 | 0.00 | 0.00 | 0.00 | 85 | 1031.8 |
| 20260510105535 | 57 | 210 | 3.5 | 4.3 | 0.00 | 0.00 | 0.00 | 83 | 1031.7 |
| 20260510104518 | 58 | 192 | 2.6 | 3.5 | 0.00 | 0.00 | 0.00 | 82 | 1031.6 |
| 20260510103527 | 58 | 185 | 2.6 | 3.5 | 0.00 | 0.00 | 0.00 | 80 | 1031.6 |
| 20260510102526 | 58 | 184 | 3.5 | 6.1 | 0.00 | 0.00 | 0.00 | 81 | 1031.5 |
| 20260510101020 | 59 | 199 | 2.6 | 4.3 | 0.00 | 0.00 | 0.00 | 79 | 1031.4 |
| 20260510100019 | 59 | 208 | 2.6 | 6.1 | 0.00 | 0.00 | 0.00 | 79 | 1031.2 |
| 20260510095523 | 60 | 221 | 2.6 | 5.2 | 0.00 | 0.00 | 0.00 | 78 | 1031.3 |
| 20260510094533 | 60 | 139 | 2.6 | 6.1 | 0.00 | 0.00 | 0.00 | 77 | 1031.1 |
| 20260510093522 | 60 | 164 | 1.7 | 2.6 | 0.00 | 0.00 | 0.00 | 77 | 1031.0 |
| 20260510092520 | 61 | 90 | 2.6 | 7.0 | 0.00 | 0.00 | 0.00 | 76 | 1030.9 |
| 20260510091528 | 61 | 72 | 1.7 | 4.3 | 0.00 | 0.00 | 0.00 | 75 | 1030.7 |
| 20260510090529 | 62 | 78 | 2.6 | 7.0 | 0.00 | 0.00 | 0.00 | 73 | 1030.3 |
| 20260510085526 | 62 | 68 | 3.5 | 7.8 | 0.00 | 0.00 | 0.00 | 72 | 1030.1 |
| 20260510084529 | 63 | 78 | 3.5 | 7.0 | 0.00 | 0.00 | 0.00 | 69 | 1030.0 |
| 20260510083536 | 63 | 65 | 4.3 | 7.8 | 0.00 | 0.00 | 0.00 | 66 | 1029.7 |
| 20260510082523 | 63 | 71 | 2.6 | 5.2 | 0.00 | 0.00 | 0.00 | 64 | 1029.7 |
| 20260510081516 | 64 | 42 | 0.9 | 3.5 | 0.00 | 0.00 | 0.00 | 61 | 1029.3 |
| 20260510080526 | 65 | 81 | 0.0 | 1.7 | 0.00 | 0.00 | 0.00 | 59 | 1029.1 |
| 20260510075534 | 65 | 71 | 0.9 | 1.7 | 0.00 | 0.00 | 0.00 | 58 | 1028.9 |
| 20260510074524 | 66 | 56 | 0.0 | 1.7 | 0.00 | 0.00 | 0.00 | 57 | 1028.7 |
| 20260510073541 | 66 | 49 | 0.0 | 1.7 | 0.00 | 0.00 | 0.00 | 57 | 1028.4 |
| 20260510072523 | 66 | 18 | 0.0 | 0.9 | 0.00 | 0.00 | 0.00 | 56 | 1028.2 |
| 20260510071532 | 67 | 45 | 0.0 | 1.7 | 0.00 | 0.00 | 0.00 | 55 | 1028.0 |
| 20260510070520 | 68 | 5 | 4.3 | 6.1 | 0.00 | 0.00 | 0.00 | 54 | 1027.8 |
| 20260510065537 | 68 | 4 | 4.3 | 6.1 | 0.00 | 0.00 | 0.00 | 53 | 1027.8 |
| 20260510064519 | 69 | 2 | 4.3 | 7.8 | 0.00 | 0.00 | 0.00 | 52 | 1027.6 |
| 20260510063529 | 70 | 1 | 4.3 | 5.2 | 0.00 | 0.00 | 0.00 | 51 | 1027.6 |
| 20260510062518 | 70 | 7 | 5.2 | 7.8 | 0.00 | 0.00 | 0.00 | 49 | 1027.5 |
| 20260510061527 | 70 | 351 | 5.2 | 7.0 | 0.00 | 0.00 | 0.00 | 49 | 1027.4 |
| 20260510060536 | 71 | 2 | 5.2 | 7.8 | 0.00 | 0.00 | 0.00 | 48 | 1027.3 |
| 20260510055526 | 71 | 354 | 4.3 | 6.1 | 0.00 | 0.00 | 0.00 | 47 | 1027.3 |
| 20260510054534 | 74 | 349 | 4.3 | 6.1 | 0.00 | 0.00 | 0.00 | 44 | 1027.2 |
| 20260510053522 | 71 | 346 | 4.3 | 5.2 | 0.00 | 0.00 | 0.00 | 47 | 1027.2 |
| 20260510052532 | 72 | 21 | 3.5 | 5.2 | 0.00 | 0.00 | 0.00 | 46 | 1027.1 |
| 20260510051522 | 71 | 345 | 4.3 | 6.1 | 0.00 | 0.00 | 0.00 | 48 | 1027.1 |
| 20260510050532 | 71 | 359 | 4.3 | 7.0 | 0.00 | 0.00 | 0.00 | 47 | 1027.0 |
| 20260510045520 | 72 | 355 | 5.2 | 7.0 | 0.00 | 0.00 | 0.00 | 46 | 1027.0 |
| 20260510044537 | 72 | 349 | 4.3 | 6.1 | 0.00 | 0.00 | 0.00 | 46 | 1026.9 |
| 20260510043518 | 70 | 354 | 4.3 | 7.8 | 0.00 | 0.00 | 0.00 | 48 | 1027.0 |
| 20260510042527 | 70 | 7 | 4.3 | 6.1 | 0.00 | 0.00 | 0.00 | 48 | 1026.9 |
| 20260510041517 | 70 | 360 | 4.3 | 7.0 | 0.00 | 0.00 | 0.00 | 48 | 1026.9 |
| 20260510040526 | 70 | 14 | 5.2 | 7.8 | 0.00 | 0.00 | 0.00 | 48 | 1027.0 |
| 20260510035536 | 71 | 359 | 3.5 | 9.6 | 0.00 | 0.00 | 0.00 | 48 | 1027.1 |
| 20260510034525 | 69 | 360 | 3.5 | 5.2 | 0.00 | 0.00 | 0.00 | 47 | 1027.0 |
| 20260510033534 | 70 | 7 | 4.3 | 7.8 | 0.00 | 0.00 | 0.00 | 47 | 1027.1 |
| 20260510032524 | 69 | 1 | 2.6 | 4.3 | 0.00 | 0.00 | 0.00 | 49 | 1027.2 |
| 20260510031534 | 70 | 19 | 3.5 | 6.1 | 0.00 | 0.00 | 0.00 | 47 | 1027.2 |
| 20260510030522 | 69 | 345 | 5.2 | 8.7 | 0.00 | 0.00 | 0.00 | 49 | 1027.3 |
| 20260510025533 | 68 | 357 | 2.6 | 5.2 | 0.00 | 0.00 | 0.00 | 49 | 1027.4 |
| 20260510024521 | 68 | 333 | 5.2 | 7.8 | 0.00 | 0.00 | 0.00 | 48 | 1027.6 |
| 20260510023530 | 68 | 350 | 5.2 | 7.8 | 0.00 | 0.00 | 0.00 | 49 | 1027.7 |
| 20260510022519 | 66 | 316 | 3.5 | 7.0 | 0.00 | 0.00 | 0.00 | 51 | 1028.0 |
| 20260510021528 | 66 | 12 | 3.5 | 7.0 | 0.00 | 0.00 | 0.00 | 53 | 1028.1 |
| 20260510020517 | 66 | 351 | 2.6 | 6.1 | 0.00 | 0.00 | 0.00 | 52 | 1028.2 |
| 20260510015527 | 66 | 13 | 4.3 | 7.0 | 0.00 | 0.00 | 0.00 | 54 | 1028.2 |
| 20260510014537 | 66 | 359 | 6.1 | 8.7 | 0.00 | 0.00 | 0.00 | 56 | 1028.5 |
| 20260510013533 | 65 | 345 | 6.1 | 7.8 | 0.00 | 0.00 | 0.00 | 58 | 1028.7 |
| 20260510012541 | 64 | 349 | 5.2 | 7.8 | 0.00 | 0.00 | 0.00 | 62 | 1028.7 |
| 20260510011523 | 63 | 318 | 4.3 | 9.6 | 0.00 | 0.00 | 0.00 | 65 | 1028.7 |
| 20260510010532 | 61 | 296 | 1.7 | 3.5 | 0.00 | 0.00 | 0.00 | 65 | 1028.8 |
| 20260510005521 | 60 | 349 | 2.6 | 5.2 | 0.00 | 0.00 | 0.00 | 67 | 1028.8 |
| 20260510004531 | 60 | 326 | 3.5 | 5.2 | 0.00 | 0.00 | 0.00 | 67 | 1028.8 |
| 20260510003520 | 59 | 285 | 1.7 | 4.3 | 0.00 | 0.00 | 0.00 | 69 | 1028.8 |
| 20260510002529 | 58 | 305 | 1.7 | 3.5 | 0.00 | 0.00 | 0.00 | 71 | 1028.8 |
| 20260510001518 | 57 | 279 | 1.7 | 2.6 | 0.00 | 0.00 | 0.00 | 71 | 1028.7 |
| 20260510000527 | 57 | 210 | 1.7 | 3.5 | 0.00 | 0.00 | 0.00 | 70 | 1028.8 |
| 20260509235536 | 56 | 218 | 1.7 | 2.6 | 0.00 | 0.00 | 0.00 | 72 | 1028.7 |
| 20260509234525 | 55 | 173 | 1.7 | 3.5 | 0.00 | 0.00 | 0.00 | 75 | 1028.7 |
| 20260509233536 | 54 | 129 | 1.7 | 3.5 | 0.00 | 0.00 | 0.00 | 79 | 1028.7 |
| 20260509232524 | 53 | 170 | 2.6 | 3.5 | 0.00 | 0.00 | 0.00 | 81 | 1028.8 |
| 20260509231533 | 53 | 174 | 2.6 | 5.2 | 0.00 | 0.00 | 0.00 | 84 | 1028.8 |
| 20260509230529 | 52 | 185 | 1.7 | 4.3 | 0.00 | 0.00 | 0.00 | 86 | 1028.8 |
| 20260509225532 | 51 | 161 | 1.7 | 3.5 | 0.00 | 0.00 | 0.00 | 92 | 1028.9 |
| 20260509224522 | 49 | 95 | 1.7 | 2.6 | 0.00 | 0.00 | 0.00 | 98 | 1028.7 |
| 20260509223530 | 48 | 30 | 0.9 | 1.7 | 0.00 | 0.00 | 0.00 | 98 | 1028.7 |
| 20260509222526 | 47 | 168 | 0.9 | 1.7 | 0.00 | 0.00 | 0.00 | 98 | 1028.5 |
| 20260509221529 | 46 | 301 | 0.9 | 1.7 | 0.00 | 0.00 | 0.00 | 98 | 1028.5 |
| 20260509220531 | 45 | 156 | 0.9 | 2.6 | 0.00 | 0.00 | 0.00 | 98 | 1028.4 |
| 20260509215527 | 44 | 191 | 0.9 | 2.6 | 0.00 | 0.00 | 0.00 | 99 | 1028.4 |
| 20260509214535 | 44 | 177 | 0.0 | 1.7 | 0.00 | 0.00 | 0.00 | 99 | 1028.3 |
| 20260509213525 | 44 | 66 | 0.9 | 1.7 | 0.00 | 0.00 | 0.00 | 99 | 1028.1 |
| 20260509212541 | 44 | 181 | 0.9 | 1.7 | 0.00 | 0.00 | 0.00 | 99 | 1028.0 |
| 20260509211524 | 44 | 206 | 0.0 | 3.5 | 0.00 | 0.00 | 0.00 | 99 | 1027.9 |
| 20260509210546 | 45 | 209 | 1.7 | 3.5 | 0.00 | 0.00 | 0.00 | 98 | 1027.6 |
| 20260509205521 | 45 | 199 | 0.9 | 1.7 | 0.00 | 0.00 | 0.00 | 97 | 1027.5 |
| 20260509204529 | 45 | 19 | 0.0 | 1.7 | 0.00 | 0.00 | 0.00 | 97 | 1027.3 |
| 20260509203517 | 44 | 65 | 0.0 | 1.7 | 0.00 | 0.00 | 0.00 | 98 | 1027.3 |
| 20260509202527 | 45 | 204 | 0.0 | 0.9 | 0.00 | 0.00 | 0.00 | 97 | 1027.1 |
| 20260509201544 | 44 | 145 | 0.9 | 1.7 | 0.00 | 0.00 | 0.00 | 98 | 1027.1 |
| 20260509200525 | 44 | 175 | 0.9 | 1.7 | 0.00 | 0.00 | 0.00 | 98 | 1026.9 |
| 20260509195534 | 45 | 359 | 2.6 | 3.5 | 0.00 | 0.00 | 0.00 | 97 | 1026.8 |
| 20260509194523 | 44 | 47 | 2.6 | 4.3 | 0.00 | 0.00 | 0.00 | 97 | 1026.7 |
| 20260509193533 | 44 | 24 | 1.7 | 4.3 | 0.00 | 0.00 | 0.00 | 97 | 1026.6 |
| 20260509192529 | 43 | 151 | 0.0 | 1.7 | 0.00 | 0.00 | 0.00 | 97 | 1026.5 |
| 20260509191532 | 43 | 307 | 0.9 | 2.6 | 0.00 | 0.00 | 0.00 | 98 | 1026.4 |
| 20260509190521 | 43 | 227 | 0.0 | 1.7 | 0.00 | 0.00 | 0.00 | 98 | 1026.1 |
| 20260509185536 | 44 | 164 | 0.9 | 2.6 | 0.00 | 0.00 | 0.00 | 97 | 1026.0 |
| 20260509184520 | 44 | 16 | 1.7 | 2.6 | 0.00 | 0.00 | 0.00 | 97 | 1026.1 |
| 20260509183529 | 44 | 19 | 0.0 | 1.7 | 0.00 | 0.00 | 0.00 | 98 | 1025.9 |
| 20260509182517 | 44 | 24 | 0.0 | 1.7 | 0.00 | 0.00 | 0.00 | 98 | 1025.9 |
| 20260509181534 | 44 | 193 | 0.9 | 1.7 | 0.00 | 0.00 | 0.00 | 97 | 1025.8 |
| 20260509180536 | 43 | 206 | 0.9 | 1.7 | 0.00 | 0.00 | 0.00 | 98 | 1025.8 |
| 20260509175525 | 44 | 176 | 0.9 | 2.6 | 0.00 | 0.00 | 0.00 | 98 | 1025.7 |
| 20260509174534 | 45 | 200 | 2.6 | 3.5 | 0.00 | 0.00 | 0.00 | 98 | 1025.6 |
| 20260509173530 | 45 | 191 | 2.6 | 4.3 | 0.00 | 0.00 | 0.00 | 98 | 1025.6 |
| 20260509172532 | 45 | 196 | 0.9 | 2.6 | 0.00 | 0.00 | 0.00 | 97 | 1025.7 |
| 20260509171521 | 46 | 6 | 0.0 | 1.7 | 0.00 | 0.00 | 0.00 | 97 | 1025.7 |
| 20260509170539 | 46 | 9 | 0.9 | 3.5 | 0.00 | 0.00 | 0.00 | 97 | 1025.7 |
| 20260509165521 | 45 | 11 | 1.7 | 4.3 | 0.00 | 0.00 | 0.00 | 97 | 1025.7 |
| 20260509164530 | 46 | 22 | 1.7 | 3.5 | 0.00 | 0.00 | 0.00 | 97 | 1025.7 |
| 20260509163519 | 45 | 8 | 1.7 | 3.5 | 0.00 | 0.00 | 0.00 | 97 | 1025.7 |
| 20260509162528 | 45 | 351 | 1.7 | 3.5 | 0.00 | 0.00 | 0.00 | 97 | 1025.5 |
| 20260509161517 | 45 | 195 | 0.9 | 1.7 | 0.00 | 0.00 | 0.00 | 97 | 1025.5 |
| 20260509160527 | 46 | 202 | 0.9 | 1.7 | 0.00 | 0.00 | 0.00 | 97 | 1025.6 |
| 20260509155538 | 46 | 169 | 1.7 | 2.6 | 0.00 | 0.00 | 0.00 | 97 | 1025.7 |
| 20260509154540 | 47 | 142 | 0.9 | 2.6 | 0.00 | 0.00 | 0.00 | 97 | 1025.7 |
| 20260509153534 | 47 | 163 | 1.7 | 3.5 | 0.00 | 0.00 | 0.00 | 97 | 1025.8 |
| 20260509152524 | 47 | 146 | 0.9 | 2.6 | 0.00 | 0.00 | 0.00 | 96 | 1025.9 |
| 20260509151533 | 47 | 94 | 0.9 | 1.7 | 0.00 | 0.00 | 0.00 | 96 | 1025.7 |
| 20260509150536 | 47 | 57 | 0.9 | 2.6 | 0.00 | 0.00 | 0.00 | 96 | 1026.0 |
| 20260509145532 | 47 | 135 | 0.0 | 1.7 | 0.00 | 0.00 | 0.00 | 96 | 1025.7 |
| 20260509144527 | 48 | 36 | 0.9 | 2.6 | 0.00 | 0.00 | 0.00 | 96 | 1025.9 |
| 20260509143528 | 48 | 171 | 0.9 | 2.6 | 0.00 | 0.00 | 0.00 | 96 | 1025.7 |
| 20260509142518 | 48 | 177 | 0.9 | 2.6 | 0.00 | 0.00 | 0.00 | 95 | 1025.9 |
| 20260509141529 | 47 | 171 | 2.6 | 3.5 | 0.00 | 0.00 | 0.00 | 96 | 1025.9 |
| 20260509140517 | 48 | 175 | 2.6 | 4.3 | 0.00 | 0.00 | 0.00 | 96 | 1025.7 |
| 20260509135526 | 48 | 146 | 1.7 | 3.5 | 0.00 | 0.00 | 0.00 | 95 | 1025.8 |
| 20260509134536 | 49 | 162 | 1.7 | 3.5 | 0.00 | 0.00 | 0.00 | 95 | 1025.8 |
| 20260509133525 | 49 | 166 | 1.7 | 3.5 | 0.00 | 0.00 | 0.00 | 95 | 1025.8 |
| 20260509132535 | 49 | 169 | 1.7 | 3.5 | 0.00 | 0.00 | 0.00 | 94 | 1025.8 |
| 20260509131523 | 50 | 75 | 1.7 | 3.5 | 0.00 | 0.00 | 0.00 | 94 | 1025.9 |
| 20260509130533 | 51 | 186 | 1.7 | 3.5 | 0.00 | 0.00 | 0.00 | 93 | 1026.1 |
| 20260509125522 | 51 | 164 | 1.7 | 3.5 | 0.00 | 0.00 | 0.00 | 93 | 1026.1 |
| 20260509124532 | 51 | 162 | 2.6 | 4.3 | 0.00 | 0.00 | 0.00 | 92 | 1026.0 |
| 20260509123521 | 52 | 116 | 0.9 | 3.5 | 0.00 | 0.00 | 0.00 | 91 | 1026.0 |
| 20260509122537 | 52 | 0.0 | 0.0 | 0.00 | 0.00 | 0.00 | 91 | 1026.0 | |
| 20260509121518 | 52 | 6 | 1.7 | 2.6 | 0.00 | 0.00 | 0.00 | 90 | 1026.0 |